| time (UTC) | temp F | wind direction | speed MPH | gust MPH | rain 1hr in | rain 24hr in | rain mn in | humidity % | barometer mb |
| 20260506062016 | 57 | 148 | 2.0 | 7.0 | 0.00 | 0.22 | 0.22 | 84 | 1007.5 |
| 20260506061019 | 57 | 154 | 1.0 | 9.0 | 0.00 | 0.22 | 0.22 | 84 | 1007.5 |
| 20260506051015 | 56 | 126 | 1.0 | 3.0 | 0.00 | 0.22 | 0.22 | 87 | 1007.1 |
| 20260506045015 | 55 | 151 | 1.0 | 4.0 | 0.00 | 0.22 | 0.22 | 89 | 1006.9 |
| 20260506044016 | 55 | 144 | 2.0 | 8.0 | 0.00 | 0.22 | 0.22 | 89 | 1006.8 |
| 20260506043016 | 55 | 160 | 2.0 | 4.0 | 0.00 | 0.22 | 0.22 | 89 | 1006.8 |
| 20260506042027 | 55 | 148 | 3.0 | 7.0 | 0.00 | 0.22 | 0.22 | 90 | 1006.8 |
| 20260506041025 | 54 | 153 | 3.0 | 7.0 | 0.00 | 0.22 | 0.22 | 91 | 1006.8 |
| 20260506040028 | 54 | 168 | 4.0 | 8.0 | 0.00 | 0.22 | 0.22 | 91 | 1006.7 |
| 20260506035016 | 55 | 148 | 3.0 | 7.0 | 0.00 | 0.22 | 0.22 | 91 | 1006.7 |
| 20260506034016 | 54 | 133 | 1.0 | 4.0 | 0.00 | 0.22 | 0.22 | 92 | 1006.8 |
| 20260506033016 | 54 | 38 | 2.0 | 6.0 | 0.00 | 0.22 | 0.22 | 94 | 1007.0 |
| 20260506032025 | 54 | 77 | 0.0 | 2.0 | 0.00 | 0.22 | 0.22 | 94 | 1006.9 |
| 20260506031023 | 54 | 67 | 0.0 | 2.0 | 0.00 | 0.22 | 0.22 | 95 | 1006.9 |
| 20260506030016 | 54 | 40 | 1.0 | 3.0 | 0.00 | 0.22 | 0.22 | 95 | 1006.9 |
| 20260506025020 | 54 | 69 | 0.0 | 2.0 | 0.00 | 0.22 | 0.22 | 95 | 1007.0 |
| 20260506024015 | 54 | 62 | 0.0 | 1.0 | 0.00 | 0.22 | 0.22 | 95 | 1006.9 |
| 20260506023026 | 54 | 72 | 0.0 | 1.0 | 0.00 | 0.22 | 0.22 | 95 | 1007.0 |
| 20260506022016 | 54 | 80 | 0.0 | 2.0 | 0.00 | 0.22 | 0.22 | 95 | 1006.9 |
| 20260506021019 | 55 | 117 | 0.0 | 1.0 | 0.00 | 0.22 | 0.22 | 95 | 1006.8 |
| 20260506020018 | 55 | 106 | 0.0 | 1.0 | 0.00 | 0.22 | 0.22 | 95 | 1006.8 |
| 20260506015015 | 55 | 0.0 | 0.0 | 0.00 | 0.22 | 0.22 | 95 | 1006.7 | |
| 20260506014016 | 55 | 0.0 | 0.0 | 0.01 | 0.22 | 0.22 | 95 | 1006.7 | |
| 20260506013016 | 54 | 0.0 | 0.0 | 0.01 | 0.22 | 0.22 | 95 | 1006.9 | |
| 20260506012016 | 55 | 80 | 1.0 | 1.0 | 0.02 | 0.22 | 0.22 | 94 | 1006.8 |
| 20260506011033 | 55 | 0.0 | 0.0 | 0.03 | 0.22 | 0.22 | 94 | 1007.0 | |
| 20260506010035 | 55 | 116 | 0.0 | 1.0 | 0.06 | 0.22 | 0.22 | 94 | 1007.1 |
| 20260506005016 | 55 | 128 | 0.0 | 2.0 | 0.10 | 0.22 | 0.22 | 94 | 1007.1 |
| 20260506004015 | 55 | 130 | 1.0 | 3.0 | 0.12 | 0.21 | 0.21 | 94 | 1007.1 |
| 20260506003027 | 55 | 126 | 1.0 | 2.0 | 0.14 | 0.21 | 0.21 | 94 | 1007.4 |
| 20260506002028 | 55 | 116 | 0.0 | 1.0 | 0.13 | 0.20 | 0.20 | 94 | 1007.6 |
| 20260506001035 | 55 | 117 | 0.0 | 2.0 | 0.13 | 0.19 | 0.19 | 93 | 1007.9 |
| 20260506000015 | 56 | 103 | 0.0 | 1.0 | 0.10 | 0.16 | 0.16 | 92 | 1008.2 |
| 20260505235015 | 56 | 110 | 0.0 | 1.0 | 0.06 | 0.12 | 0.12 | 91 | 1008.3 |
| 20260505234021 | 56 | 71 | 1.0 | 2.0 | 0.04 | 0.09 | 0.09 | 90 | 1008.1 |
| 20260505233016 | 57 | 47 | 1.0 | 4.0 | 0.03 | 0.07 | 0.07 | 91 | 1008.3 |
| 20260505232015 | 56 | 43 | 1.0 | 4.0 | 0.07 | 0.07 | 0.07 | 92 | 1008.1 |
| 20260505231016 | 56 | 15 | 1.0 | 3.0 | 0.06 | 0.06 | 0.06 | 93 | 1008.0 |
| 20260505230016 | 57 | 26 | 2.0 | 6.0 | 0.06 | 0.06 | 0.06 | 93 | 1008.1 |
| 20260505225021 | 57 | 23 | 2.0 | 6.0 | 0.06 | 0.06 | 0.06 | 92 | 1008.3 |
| 20260505224016 | 57 | 52 | 1.0 | 6.0 | 0.05 | 0.05 | 0.05 | 91 | 1008.2 |
| 20260505223039 | 59 | 65 | 1.0 | 4.0 | 0.04 | 0.04 | 0.04 | 87 | 1008.0 |
| 20260505222015 | 59 | 161 | 2.0 | 6.0 | 0.00 | 0.00 | 0.00 | 84 | 1008.1 |
| 20260505221027 | 59 | 85 | 1.0 | 3.0 | 0.00 | 0.00 | 0.00 | 83 | 1006.9 |
| 20260505220016 | 59 | 138 | 2.0 | 7.0 | 0.00 | 0.00 | 0.00 | 83 | 1006.3 |
| 20260505215016 | 59 | 162 | 4.0 | 7.0 | 0.00 | 0.00 | 0.00 | 83 | 1006.3 |
| 20260505214016 | 60 | 157 | 3.0 | 7.0 | 0.00 | 0.00 | 0.00 | 81 | 1006.7 |
| 20260505213038 | 60 | 153 | 1.0 | 2.0 | 0.00 | 0.00 | 0.00 | 79 | 1006.9 |
| 20260505212538 | 60 | 124 | 1.0 | 4.0 | 0.00 | 0.00 | 0.00 | 79 | 1006.8 |
| 20260505211516 | 61 | 148 | 2.0 | 6.0 | 0.00 | 0.00 | 0.00 | 78 | 1006.7 |
| 20260505210526 | 61 | 142 | 1.0 | 3.0 | 0.00 | 0.00 | 0.00 | 78 | 1006.7 |
| 20260505205527 | 61 | 134 | 1.0 | 4.0 | 0.00 | 0.00 | 0.00 | 78 | 1006.8 |
| 20260505204521 | 62 | 148 | 2.0 | 4.0 | 0.00 | 0.00 | 0.00 | 76 | 1006.6 |
| 20260505203515 | 62 | 143 | 2.0 | 6.0 | 0.00 | 0.00 | 0.00 | 75 | 1006.7 |
| 20260505202527 | 62 | 144 | 2.0 | 7.0 | 0.00 | 0.00 | 0.00 | 75 | 1006.9 |
| 20260505201516 | 62 | 146 | 2.0 | 6.0 | 0.00 | 0.00 | 0.00 | 74 | 1007.0 |
| 20260505200516 | 63 | 152 | 2.0 | 4.0 | 0.00 | 0.00 | 0.00 | 74 | 1007.1 |
| 20260505195536 | 63 | 134 | 1.0 | 4.0 | 0.00 | 0.00 | 0.00 | 74 | 1007.3 |
| 20260505194515 | 63 | 90 | 1.0 | 3.0 | 0.00 | 0.00 | 0.00 | 73 | 1007.4 |
| 20260505193556 | 63 | 107 | 1.0 | 2.0 | 0.00 | 0.00 | 0.00 | 73 | 1007.5 |
| 20260505192526 | 64 | 118 | 0.0 | 1.0 | 0.00 | 0.00 | 0.00 | 72 | 1007.7 |
| 20260505191515 | 64 | 116 | 1.0 | 4.0 | 0.00 | 0.00 | 0.00 | 72 | 1007.6 |
| 20260505190515 | 64 | 138 | 2.0 | 4.0 | 0.00 | 0.00 | 0.00 | 72 | 1007.3 |
| 20260505185515 | 64 | 112 | 1.0 | 3.0 | 0.00 | 0.00 | 0.00 | 71 | 1007.2 |
| 20260505184525 | 65 | 118 | 1.0 | 4.0 | 0.00 | 0.00 | 0.00 | 70 | 1007.2 |
| 20260505183539 | 65 | 143 | 1.0 | 3.0 | 0.00 | 0.00 | 0.00 | 70 | 1007.3 |
| 20260505182601 | 66 | 130 | 1.0 | 2.0 | 0.00 | 0.00 | 0.00 | 69 | 1007.3 |
| 20260505181517 | 66 | 74 | 0.0 | 3.0 | 0.00 | 0.00 | 0.00 | 69 | 1007.4 |
| 20260505180516 | 66 | 52 | 1.0 | 6.0 | 0.00 | 0.00 | 0.00 | 68 | 1007.4 |
| 20260505175518 | 67 | 78 | 1.0 | 4.0 | 0.00 | 0.00 | 0.00 | 67 | 1007.4 |
| 20260505174518 | 67 | 116 | 1.0 | 6.0 | 0.00 | 0.00 | 0.00 | 66 | 1007.5 |
| 20260505173516 | 68 | 79 | 1.0 | 6.0 | 0.00 | 0.00 | 0.00 | 66 | 1007.7 |
| 20260505172536 | 68 | 80 | 2.0 | 7.0 | 0.00 | 0.00 | 0.00 | 65 | 1007.7 |
| 20260505171516 | 69 | 81 | 2.0 | 7.0 | 0.00 | 0.00 | 0.00 | 64 | 1007.6 |
| 20260505170516 | 70 | 115 | 2.0 | 6.0 | 0.00 | 0.00 | 0.00 | 63 | 1007.6 |
| 20260505165516 | 71 | 122 | 2.0 | 4.0 | 0.00 | 0.00 | 0.00 | 61 | 1007.6 |
| 20260505164536 | 72 | 84 | 1.0 | 3.0 | 0.00 | 0.00 | 0.00 | 60 | 1007.6 |
| 20260505163516 | 71 | 61 | 2.0 | 7.0 | 0.00 | 0.00 | 0.00 | 60 | 1007.6 |
| 20260505162520 | 71 | 68 | 2.0 | 6.0 | 0.00 | 0.00 | 0.00 | 60 | 1007.7 |
| 20260505161536 | 71 | 62 | 2.0 | 6.0 | 0.00 | 0.00 | 0.00 | 59 | 1007.8 |
| 20260505160517 | 72 | 97 | 2.0 | 6.0 | 0.00 | 0.00 | 0.00 | 58 | 1007.9 |
| 20260505152515 | 73 | 62 | 2.0 | 6.0 | 0.00 | 0.00 | 0.00 | 57 | 1008.0 |
| 20260505151528 | 71 | 86 | 2.0 | 6.0 | 0.00 | 0.00 | 0.00 | 59 | 1008.1 |
| 20260505150521 | 72 | 77 | 2.0 | 6.0 | 0.00 | 0.00 | 0.00 | 59 | 1008.0 |
| 20260505140524 | 76 | 35 | 3.0 | 7.0 | 0.00 | 0.00 | 0.00 | 49 | 1008.2 |
| 20260505124516 | 75 | 87 | 1.0 | 4.0 | 0.00 | 0.00 | 0.00 | 44 | 1008.7 |
| 20260505123516 | 75 | 16 | 3.0 | 7.0 | 0.00 | 0.00 | 0.00 | 47 | 1008.9 |
| 20260505122526 | 74 | 49 | 2.0 | 7.0 | 0.00 | 0.00 | 0.00 | 48 | 1009.0 |
| 20260505121535 | 74 | 45 | 2.0 | 4.0 | 0.00 | 0.00 | 0.00 | 49 | 1009.0 |
| 20260505120519 | 74 | 30 | 4.0 | 10.0 | 0.00 | 0.00 | 0.00 | 51 | 1008.9 |
| 20260505115515 | 74 | 22 | 2.0 | 7.0 | 0.00 | 0.00 | 0.00 | 50 | 1009.0 |
| 20260505114522 | 75 | 45 | 3.0 | 9.0 | 0.00 | 0.00 | 0.00 | 49 | 1009.0 |
| 20260505113518 | 74 | 69 | 1.0 | 3.0 | 0.00 | 0.00 | 0.00 | 48 | 1009.0 |
| 20260505112516 | 74 | 37 | 3.0 | 8.0 | 0.00 | 0.00 | 0.00 | 49 | 1009.2 |
| 20260505111515 | 73 | 19 | 4.0 | 7.0 | 0.00 | 0.00 | 0.00 | 49 | 1009.2 |
| 20260505110516 | 73 | 40 | 3.0 | 8.0 | 0.00 | 0.00 | 0.00 | 51 | 1009.1 |
| 20260505101523 | 72 | 26 | 2.0 | 6.0 | 0.00 | 0.00 | 0.00 | 45 | 1009.7 |
| 20260505100516 | 71 | 23 | 3.0 | 6.0 | 0.00 | 0.00 | 0.00 | 44 | 1009.7 |
| 20260505095516 | 71 | 29 | 2.0 | 6.0 | 0.00 | 0.00 | 0.00 | 44 | 1009.8 |
| 20260505094515 | 71 | 30 | 2.0 | 4.0 | 0.00 | 0.00 | 0.00 | 44 | 1009.8 |
| 20260505093519 | 70 | 43 | 2.0 | 7.0 | 0.00 | 0.00 | 0.00 | 46 | 1009.8 |
| 20260505092520 | 70 | 17 | 2.0 | 6.0 | 0.00 | 0.00 | 0.00 | 46 | 1010.0 |
| 20260505091516 | 69 | 34 | 2.0 | 6.0 | 0.00 | 0.00 | 0.00 | 48 | 1010.0 |
| 20260505090526 | 69 | 13 | 3.0 | 6.0 | 0.00 | 0.00 | 0.00 | 49 | 1010.1 |
| 20260505085518 | 68 | 46 | 2.0 | 4.0 | 0.00 | 0.00 | 0.00 | 52 | 1010.1 |
| 20260505084515 | 67 | 42 | 2.0 | 7.0 | 0.00 | 0.00 | 0.00 | 53 | 1010.2 |
| 20260505083528 | 66 | 31 | 2.0 | 4.0 | 0.00 | 0.00 | 0.00 | 56 | 1010.2 |
| 20260505082523 | 66 | 37 | 1.0 | 3.0 | 0.00 | 0.00 | 0.00 | 57 | 1010.4 |
| 20260505081516 | 65 | 16 | 3.0 | 7.0 | 0.00 | 0.00 | 0.00 | 60 | 1010.3 |
| 20260505080528 | 65 | 46 | 1.0 | 4.0 | 0.00 | 0.00 | 0.00 | 61 | 1010.4 |
| 20260505075516 | 64 | 44 | 1.0 | 3.0 | 0.00 | 0.00 | 0.00 | 64 | 1010.4 |
| 20260505074525 | 63 | 24 | 1.0 | 4.0 | 0.00 | 0.00 | 0.00 | 66 | 1010.6 |
| 20260505073515 | 63 | 41 | 1.0 | 3.0 | 0.00 | 0.00 | 0.00 | 68 | 1010.8 |
| 20260505072515 | 63 | 47 | 0.0 | 2.0 | 0.00 | 0.00 | 0.00 | 68 | 1010.8 |
| 20260505071516 | 62 | 28 | 2.0 | 3.0 | 0.00 | 0.00 | 0.00 | 70 | 1011.0 |
| 20260505070516 | 61 | 25 | 1.0 | 4.0 | 0.00 | 0.00 | 0.00 | 71 | 1011.1 |